Location: ????????
(55.3155°N, 39.2900°E)
Time: 18:33:33
(UTC+00:00)

ACS3 Solar Sail - Pass Details

Date: 22 November 2025
Orbit: 889 x 1003 km, 97.3° (Epoch: 06 December)

Event Time Altitude Azimuth Distance (km) Brightness Sun altitude
Rises 23:22:14 0° 19° (NNE) 3,594 5.3 -47.1°
Reaches altitude 10° 23:25:10 10° 33° (NNE) 2,666 4.6 -46.7°
Enters shadow 23:26:40 16° 45° (NE) 2,276 4.2 -46.6°
